Location: Taukkyan
(23.1052°N, 94.0030°E)
Time: 11:27:07
(UTC+00:00)

Cosmos 1544 - Pass Details

Date: 06 July 2020
Orbit: 473 x 490 km, 82.5° (Epoch: 14 August)

Event Time Altitude Azimuth Distance (km) Brightness Sun altitude
Exits shadow 22:02:42 17° 202° (SSW) 1,276 4.7 -13.3°
Maximum altitude 22:05:17 53° 276° (W) 585 3.1 -12.7°
Drops below altitude 10° 22:08:48 10° 354° (N) 1,640 6.1 -12.1°
Sets 22:10:55 0° 359° (N) 2,519 7.1 -11.6°
